Temp
16 16 16 16 16 17 17 17 17 17 17 17 17 17 17 17 17 17 17 17 17 17 17 17 17 17 17 17 17 17 17 17 17 17 17 17 17 17 17 17 18 18 18 18 18 18 18 18 17 17 17 17 17 17 17 17 17 17 17 17 17 16 16 16 16 16 16 16 16
16 16 16 16 16 16 16 16 16 16 16 16 16 16 16 16 16 16 16 16 16 17 17 17 17 17 17 17 17 17 17 17 17 17 17 17 17 17 17 17 17 17 17 17 17 17 17 17 17 17 17 17 17 17 17 17 17 17 17 17 17 17 17 16 16 16 16 16 16
15 16 16 16 16 16 16 16 16 16 16 16 16 16 16 16 16 16 16 16 16 16 16 16 16 16 16 16 16 16 16 16 16 16 16 16 16 16 16 16 16 16 16 16 16 16 16 16 16 16 16 17 17 17 17 17 17 17 17 17 17 17 17 17 17 16 16 16 16
15 15 15 15 15 15 15 15 16 16 16 16 16 16 16 16 16 16 16 15 15 15 15 15 15 15 15 16 16 16 16 16 16 16 16 16 16 15 15 15 15 15 15 15 15 15 15 15 15 15 16 16 16 16 16 16 16 16 16 16 16 16 16 16 17 16 16 16 16
15 15 15 15 15 15 15 15 15 15 15 15 15 15 15 15 15 15 15 15 15 15 15 15 15 15 15 15 15 15 15 15 15 15 15 15 15 15 15 15 15 15 15 15 15 15 15 15 15 15 15 15 15 15 15 15 15 16 16 16 16 16 16 16 16 16 16 16 16
14 14 14 15 15 15 14 14 14 14 14 14 14 14 14 14 14 14 14 14 14 14 14 14 14 14 14 14 14 14 14 14 14 14 14 14 14 14 14 14 14 14 14 14 14 14 14 14 14 14 14 14 14 15 15 15 15 15 15 15 15 16 16 16 16 16 16 16 16
14 14 14 14 15 15 15 15 15 14 14 14 14 14 14 14 14 14 14 14 14 14 14 14 14 14 14 14 14 14 14 14 14 14 14 13 13 13 13 13 13 13 13 13 13 13 13 13 14 14 14 14 14 14 14 14 14 14 15 15 15 15 15 15 15 15 15 15 15
14 14 14 14 14 14 14 14 14 14 14 14 14 14 14 14 14 14 13 13 13 14 14 14 14 14 14 14 14 14 13 13 13 13 13 13 13 13 13 13 13 13 13 12 13 13 13 13 13 13 13 13 13 13 13 13 14 14 14 14 15 15 15 15 15 15 15 15 15
13 13 13 13 13 13 13 14 14 14 14 14 14 14 14 14 14 14 14 13 13 13 13 13 13 13 13 13 13 13 12 12 12 12 12 12 12 13 12 12 12 12 12 12 12 12 12 12 12 12 12 13 13 13 13 13 13 13 14 14 14 14 14 14 14 14 14 14 14
13 13 13 12 12 13 13 13 13 13 14 14 13 13 13 13 13 13 13 13 13 13 13 12 12 12 12 12 12 11 11 11 11 11 12 12 12 12 12 12 12 12 12 12 12 12 12 12 12 12 12 12 12 12 13 13 13 13 13 14 14 14 14 14 14 14 14 14 14
13 13 12 12 12 12 12 13 13 13 13 13 13 12 12 12 12 12 12 12 12 12 12 11 11 11 11 11 11 11 11 11 11 11 11 11 11 11 11 11 11 11 12 12 12 12 12 12 12 12 12 12 12 12 12 12 13 13 13 13 13 13 13 14 14 14 14 13 13
13 12 12 12 12 12 12 12 12 12 12 12 12 12 11 11 11 11 11 11 11 11 11 10 10 10 11 11 11 11 11 11 11 11 11 11 11 11 11 10 11 11 11 11 11 11 11 11 11 11 11 11 11 12 12 12 12 12 12 13 13 13 13 13 13 13 13 13 12
12 12 12 12 12 12 12 12 12 11 11 11 11 11 11 11 10 10 10 10 10 10 10 10 10 10 10 10 10 10 10 10 10 10 10 10 10 10 10 10 9 9 10 10 10 10 10 10 10 10 10 10 10 10 11 11 11 12 12 12 12 12 12 12 12 12 12 12 12
12 12 12 12 12 11 11 11 11 11 11 11 11 11 11 10 10 10 10 10 10 10 9 9 9 9 9 9 10 10 10 10 9 9 9 9 9 9 9 8 8 8 8 8 8 8 8 8 8 9 9 9 9 9 9 10 10 10 10 11 11 11 11 11 11 11 11 11 12
12 12 12 11 11 11 11 11 11 11 11 11 10 10 10 10 10 9 9 9 9 9 9 9 8 8 8 8 8 8 8 8 8 8 8 8 8 8 8 8 8 8 8 8 8 8 8 8 8 8 9 9 9 9 9 9 9 10 10 10 10 10 11 11 11 11 11 11 11
12 11 11 11 11 11 11 11 10 10 10 10 10 10 9 9 9 9 9 8 8 8 8 8 8 7 7 7 7 7 7 7 7 7 7 7 7 7 7 7 8 8 8 8 8 8 8 8 8 9 9 9 9 9 9 9 10 10 10 10 10 10 11 11 11 11 11 11 11
11 11 11 11 11 10 10 10 10 10 10 10 9 9 9 9 8 8 8 8 8 8 7 7 7 7 7 7 7 7 7 7 7 7 7 7 8 8 8 8 8 8 8 8 8 8 9 9 9 9 9 9 9 9 9 10 10 10 10 10 10 10 10 10 10 10 10 10 10
11 11 11 11 10 10 10 10 10 9 9 9 9 8 8 8 8 8 8 8 8 8 8 7 8 8 8 7 8 8 8 8 8 8 8 8 8 8 8 8 8 8 8 8 8 8 9 9 9 9 9 9 9 9 9 9 9 10 10 10 10 10 10 10 10 10 10 9 9
11 11 11 10 10 10 10 10 9 9 9 8 8 8 8 8 8 7 7 7 8 8 8 7 8 8 8 7 7 8 8 8 8 8 8 8 8 8 8 8 8 8 8 8 8 8 8 8 8 8 8 8 8 8 8 9 9 9 9 9 9 9 9 9 9 9 9 9 8
11 11 10 10 10 10 9 9 9 8 8 8 8 8 8 8 7 7 7 7 7 8 8 7 7 7 7 7 7 7 8 8 8 8 8 8 8 8 8 8 8 8 8 8 7 7 7 7 7 8 8 8 8 8 8 8 8 8 8 8 8 8 8 8 8 8 8 8 7
10 10 10 10 9 9 9 8 8 8 8 8 8 8 8 7 7 7 7 7 7 7 7 7 7 7 7 7 7 7 7 7 7 7 7 7 7 7 7 7 7 7 7 7 7 7 7 7 7 7 7 7 7 7 7 7 7 7 7 7 7 7 7 7 7 7 7 7 7
10 10 10 9 9 8 8 8 8 7 7 7 7 7 7 7 7 7 7 7 7 7 7 7 7 7 7 7 7 7 7 7 7 7 7 7 7 7 7 7 7 7 6 6 6 6 6 6 6 6 6 6 6 6 6 6 7 7 7 7 6 6 6 6 6 6 6 6 6
10 10 9 9 8 8 8 8 7 7 7 7 7 7 7 7 7 7 7 7 7 7 6 6 6 7 7 7 7 6 6 6 6 6 7 7 7 6 6 6 6 6 6 6 6 6 6 6 6 6 6 6 6 6 6 6 6 6 6 6 6 6 6 6 6 6 6 6 6
9 9 8 8 8 8 8 7 7 6 6 6 7 7 7 7 7 7 7 7 7 7 6 6 6 6 6 6 6 6 6 6 6 6 6 6 6 6 6 6 6 6 6 6 6 5 5 5 6 6 6 6 6 6 5 5 6 6 6 6 5 5 5 5 5 5 5 6 6
9 8 8 8 8 7 7 7 7 6 6 6 6 7 7 7 7 7 6 6 6 7 6 6 6 6 6 6 6 6 5 5 5 6 6 6 6 5 5 5 5 6 6 6 5 5 5 5 5 6 6 5 5 5 5 5 5 5 5 5 5 5 5 5 5 5 5 5 5
8 8 8 7 7 7 7 7 6 6 6 6 6 7 7 6 6 6 6 6 6 6 6 6 6 6 6 5 5 5 5 5 5 5 5 5 5 5 5 5 5 5 5 5 5 5 5 5 5 5 5 5 5 5 5 5 5 5 5 5 5 5 4 4 4 4 4 4 5
7 7 7 7 7 7 6 6 6 6 5 5 5 5 5 5 5 5 5 5 5 6 6 6 6 5 5 5 5 5 5 5 4 4 4 5 5 5 5 5 5 5 5 5 5 5 5 5 5 5 5 5 5 5 5 4 4 4 4 4 4 4 4 4 4 4 4 4 4
7 7 7 7 7 6 6 6 6 6 5 5 5 5 5 5 5 5 5 5 5 5 5 5 5 5 5 5 5 4 4 4 4 4 4 4 4 4 4 4 4 4 4 4 4 4 4 4 5 5 4 4 4 4 4 4 4 3 3 3 3 3 3 3 3 3 3 3 3
7 6 6 6 6 6 6 6 6 6 6 5 5 5 5 5 5 5 5 5 5 5 5 5 5 5 4 4 4 4 4 4 4 4 4 4 4 4 4 4 4 4 4 4 4 4 4 4 4 4 4 4 4 4 4 4 3 3 3 3 3 3 3 3 3 3 3 3 2
6 6 6 6 6 6 6 6 6 6 5 5 5 5 5 5 5 5 5 5 5 5 5 5 5 5 4 4 4 4 4 4 4 4 4 4 4 4 4 4 4 4 4 3 3 3 4 4 4 4 4 4 4 4 3 3 3 3 3 2 2 2 2 2 2 2 2 2 2
6 6 6 6 6 6 6 6 6 5 5 5 5 5 5 5 4 4 4 4 4 4 5 5 5 4 4 4 4 4 4 4 4 4 4 4 4 4 3 3 3 3 3 3 3 3 3 3 3 3 3 3 3 3 3 3 3 3 3 2 2 2 2 2 2 2 2 2 2
6 6 6 6 6 6 5 5 5 5 5 5 5 5 5 4 4 4 4 4 4 4 4 4 4 4 4 4 4 4 4 4 4 4 3 3 3 3 3 3 3 3 3 3 3 3 3 3 3 3 3 3 3 3 3 3 3 3 3 3 2 2 2 2 2 2 2 2 2
6 6 6 6 5 5 5 5 5 5 5 5 5 5 4 4 4 4 4 4 4 4 4 4 4 4 4 4 4 4 4 4 3 3 3 3 3 3 3 3 3 3 3 3 3 2 2 2 2 2 2 2 2 2 2 2 2 2 2 2 2 2 2 2 2 2 2 2 2
6 6 6 5 5 5 5 5 5 5 5 5 5 4 4 4 4 4 4 4 4 4 4 4 4 4 4 4 3 3 3 3 3 3 3 3 3 3 3 3 3 2 2 2 2 2 2 2 2 2 2 2 2 2 2 2 2 2 2 2 2 2 2 3 3 3 3 3 3
6 6 5 5 5 5 5 5 5 5 5 5 4 4 4 4 4 4 4 4 4 4 4 4 4 4 4 4 3 3 3 3 3 3 3 3 3 3 3 2 2 2 2 2 2 2 2 2 2 2 2 2 2 2 2 2 2 2 2 2 2 2 3 3 3 3 3 3 3
6 6 5 5 5 5 5 5 5 5 5 4 4 4 4 4 4 4 4 4 4 4 4 4 4 4 3 3 3 3 3 3 3 3 3 3 3 2 2 2 2 2 2 2 2 2 1 1 1 1 1 1 1 1 1 2 2 2 2 2 2 2 2 3 3 3 3 3 2
5 5 5 5 5 5 5 5 5 4 4 4 4 4 4 4 4 4 3 3 3 3 3 3 3 3 3 3 3 3 3 3 3 3 2 2 2 2 2 2 2 2 2 2 1 1 1 1 1 1 1 1 1 1 1 1 1 1 1 2 2 2 2 2 3 3 3 3 2
5 5 5 5 5 5 5 4 4 4 4 4 4 4 4 3 3 3 3 3 3 3 3 3 3 3 3 3 3 3 2 2 2 2 2 2 2 2 2 2 2 2 1 1 1 1 1 1 1 1 1 1 1 1 1 1 1 1 1 1 2 2 2 2 2 2 2 2 2
5 5 5 5 5 4 4 4 4 4 4 4 4 4 4 3 3 3 3 3 3 3 3 3 3 3 3 3 2 2 2 2 2 2 2 2 2 2 2 2 1 1 1 1 1 1 1 0 0 0 1 1 1 1 1 1 1 1 1 1 1 1 2 2 2 2 2 2 2
5 5 5 4 4 4 4 3 3 4 4 4 4 4 3 3 3 3 3 3 3 3 3 3 3 2 2 2 2 2 2 2 2 2 2 2 2 2 2 1 1 1 1 1 0 0 0 0 0 0 1 1 1 1 1 1 1 1 1 1 1 1 1 1 2 2 2 2 2
4 4 4 4 4 4 4 3 3 3 4 4 4 3 3 3 3 3 3 3 3 3 3 2 2 2 2 2 2 2 2 2 2 2 2 2 2 1 1 1 1 1 1 0 0 0 0 0 0 0 1 1 1 1 1 1 1 1 1 1 1 1 1 1 1 2 2 2 2
Height
805 806 806 807 808 808 809 809 810 810 810 810 811 811 811 811 812 812 813 813 813 814 814 814 814 815 815 815 815 816 816 816 817 817 817 817 818 818 818 819 819 819 819 819 819 820 820 820 820 821 821 821 821 821 822 822 822 822 822 822 822 822 822 822 822 822 822 822 822
804 805 806 807 807 808 808 809 809 809 810 810 810 810 810 811 811 812 812 812 812 812 813 813 813 813 814 814 814 815 815 815 816 816 816 817 817 817 817 817 817 818 818 818 818 818 818 818 819 819 819 819 820 820 820 820 821 821 821 821 821 821 821 821 820 820 820 820 820
803 804 805 806 807 807 807 808 808 808 809 809 809 809 809 810 810 811 811 811 811 811 812 812 812 812 813 813 813 814 814 814 815 815 815 816 816 816 816 816 816 816 817 817 817 817 817 817 817 817 817 818 818 818 818 819 819 819 819 819 819 819 819 819 819 819 819 819 819
802 803 804 805 806 806 807 807 807 807 808 808 808 808 808 809 809 810 810 810 810 810 811 811 811 812 812 812 812 813 813 813 814 814 814 814 815 815 815 815 815 815 815 815 815 815 815 816 816 816 816 816 817 817 817 817 817 817 817 817 817 817 817 817 817 817 817 817 817
802 802 803 804 804 805 806 806 807 807 807 807 807 807 807 808 808 809 809 809 810 810 810 810 810 810 811 811 811 812 812 812 812 813 813 813 813 814 814 814 814 814 814 814 814 814 814 814 814 814 814 815 815 815 815 815 816 816 816 815 816 816 816 816 816 816 816 816 816
801 802 802 803 804 804 805 805 806 806 806 807 807 807 807 807 808 808 808 808 809 809 809 809 809 809 810 810 810 811 811 811 811 812 812 812 812 812 812 812 812 812 812 812 813 813 813 813 813 813 813 813 813 813 813 813 814 814 814 814 814 814 814 814 814 814 814 814 814
801 802 802 803 803 804 805 805 805 805 806 806 806 806 807 807 807 807 807 807 807 808 808 808 808 808 809 809 810 810 810 810 810 811 811 811 811 811 812 811 811 811 811 812 812 812 812 812 812 811 811 811 811 811 811 812 812 812 812 812 812 812 813 812 812 812 812 812 813
801 802 802 803 803 804 804 805 805 805 805 805 806 806 806 806 806 806 807 807 807 807 807 807 807 808 808 808 809 809 809 809 810 810 810 810 810 810 810 810 810 810 810 810 810 810 810 811 810 810 810 810 809 809 809 810 810 810 810 810 811 811 811 811 811 811 811 811 812
801 801 802 802 803 803 803 804 804 804 804 805 805 805 805 805 805 805 806 806 806 806 807 807 807 807 807 808 808 808 808 808 808 808 808 808 809 809 809 809 809 809 809 809 809 809 809 809 809 809 809 809 808 808 808 808 809 808 808 809 809 809 809 810 810 810 810 810 810
801 801 802 802 802 802 802 803 803 803 803 803 804 804 804 804 805 805 805 805 805 806 806 806 807 807 807 807 807 807 807 807 807 807 807 807 807 807 808 808 807 807 807 807 807 807 807 807 807 807 807 807 807 807 807 807 807 807 807 807 807 807 807 808 808 808 809 809 809
801 801 801 801 801 802 802 802 802 802 802 802 803 803 803 804 804 804 804 804 805 805 805 806 805 805 805 806 806 806 806 806 806 806 806 806 806 807 807 807 806 806 806 806 806 806 806 806 806 806 806 806 806 806 806 806 806 806 805 806 805 805 806 806 807 807 807 807 807
800 800 800 800 800 801 801 801 802 802 802 802 803 803 803 803 803 803 803 804 804 804 805 804 804 804 804 804 805 805 805 805 805 805 805 805 805 805 805 805 805 805 804 805 805 805 805 805 805 804 804 804 804 804 804 804 804 804 804 804 804 804 804 804 805 805 806 806 806
799 799 799 800 800 800 800 801 801 802 802 802 803 803 803 803 803 803 803 803 804 804 804 803 803 803 804 804 804 804 804 804 804 804 804 804 804 804 804 804 804 803 803 803 803 803 803 803 803 803 802 802 802 802 802 802 802 802 802 802 802 802 802 803 803 804 804 805 805
798 799 799 799 799 800 800 801 801 802 802 802 803 803 803 802 802 802 803 803 803 803 803 803 803 803 803 803 803 803 803 803 803 803 803 803 803 803 803 803 803 802 802 802 802 802 802 802 802 802 802 801 801 801 801 801 801 801 801 801 801 801 801 802 802 802 803 803 803
798 798 799 799 799 800 800 801 801 802 802 802 802 802 802 802 802 802 802 802 802 803 803 803 803 802 802 802 802 802 802 802 802 802 802 802 802 802 802 802 802 802 802 802 802 802 801 801 801 801 801 801 801 800 800 800 800 800 800 800 800 800 800 800 801 801 802 802 802
798 798 798 799 799 799 800 800 801 801 801 802 802 802 802 802 802 802 802 802 802 802 802 802 802 802 802 802 802 802 802 802 802 802 802 802 802 802 802 801 801 801 801 801 801 801 800 800 800 800 800 800 800 800 800 799 799 799 799 799 799 799 799 799 799 800 800 800 800
797 798 798 798 798 799 799 800 800 801 801 801 801 801 801 801 801 801 801 801 802 802 802 802 802 802 802 801 802 802 802 801 801 801 801 801 801 801 801 801 800 800 800 800 800 800 800 799 799 799 799 799 799 799 799 798 798 798 798 798 798 798 798 798 798 798 799 799 799
797 797 797 798 798 799 799 799 800 800 800 800 800 800 800 800 801 801 801 801 801 801 801 801 801 801 801 801 801 801 801 801 801 801 801 800 800 800 800 800 800 799 799 799 799 799 799 799 799 798 798 798 798 798 798 798 797 797 797 797 797 797 797 797 797 797 798 798 798
797 797 797 797 798 798 798 798 799 799 799 799 799 799 800 800 800 800 800 800 800 801 800 800 800 800 800 800 800 800 800 800 800 800 800 800 800 799 799 799 799 799 799 798 798 798 798 798 798 797 797 797 797 797 797 797 797 797 797 797 797 797 797 797 797 797 797 798 798
796 797 797 797 797 798 798 798 798 798 798 799 799 799 799 800 800 800 800 800 800 800 800 800 800 800 800 800 800 799 799 799 799 799 799 799 799 799 799 798 798 798 798 797 797 797 797 797 797 797 797 797 797 797 797 796 796 796 796 796 796 796 796 796 797 797 797 797 798
796 796 797 797 797 797 797 797 797 798 798 798 799 799 799 799 799 799 799 799 799 799 799 799 799 799 799 799 799 799 799 799 799 798 798 798 798 798 798 798 797 797 797 797 797 797 797 796 796 796 796 796 796 796 796 796 796 796 796 796 796 796 796 796 796 796 797 797 797
796 796 796 796 796 796 797 797 797 798 798 798 798 799 799 799 799 799 799 799 799 799 799 799 799 799 799 799 799 798 798 798 798 798 798 798 797 797 797 797 797 797 796 796 796 796 796 796 796 796 796 796 796 796 796 795 795 795 795 795 795 795 796 796 796 796 797 797 797
795 795 795 795 795 796 796 797 797 797 798 798 798 798 798 798 798 798 798 798 798 798 798 798 798 798 798 798 798 798 798 798 798 797 797 797 797 797 797 797 796 796 796 796 796 796 795 795 795 795 795 795 795 795 795 795 795 795 795 795 795 795 795 796 796 796 797 797 797
794 794 794 794 795 796 796 797 797 797 797 797 797 798 798 798 798 798 798 798 798 798 798 798 798 798 798 798 798 798 798 797 797 797 797 797 797 797 797 796 796 796 796 795 795 795 795 795 795 795 795 795 795 795 795 795 795 795 795 795 795 795 796 796 796 797 797 797 797
793 793 794 794 795 795 796 796 797 797 797 797 797 797 797 797 797 797 797 797 797 798 798 798 798 798 798 798 798 797 797 797 797 797 797 797 797 796 796 796 796 796 796 795 795 795 795 795 795 795 795 795 795 795 795 795 795 795 795 795 795 795 796 796 796 797 797 797 797
792 793 793 794 794 795 795 796 796 796 796 796 796 796 797 797 797 797 797 797 797 797 797 797 797 797 797 797 797 797 797 797 797 797 797 797 796 796 796 796 796 795 795 795 795 795 795 795 795 795 795 795 795 795 795 795 795 795 795 795 795 795 795 796 796 796 797 797 798
792 792 793 794 794 795 795 795 795 795 796 796 796 796 796 796 796 797 797 797 797 797 797 797 797 797 797 797 797 797 797 797 797 797 797 797 796 796 796 795 795 795 795 795 795 795 795 795 794 794 795 795 795 795 795 795 795 795 795 795 795 795 795 796 796 796 797 797 798
792 792 793 793 794 794 794 794 795 795 795 795 795 795 795 796 796 796 796 796 796 796 796 796 796 797 797 797 797 797 797 797 797 797 797 796 796 796 795 795 795 795 795 795 795 795 795 794 794 794 795 795 795 795 795 795 795 795 795 795 796 796 796 796 796 797 797 797 798
791 792 792 793 793 793 794 794 794 794 794 794 795 795 795 795 795 795 796 796 796 796 796 796 796 796 796 796 797 797 797 797 797 797 797 796 796 795 795 795 795 795 795 795 795 795 794 794 794 794 795 795 795 795 795 795 795 795 795 796 796 796 796 797 797 797 797 798 798
791 791 792 792 792 793 793 793 793 793 794 794 794 794 794 794 795 795 795 795 795 795 795 795 795 796 796 796 796 796 796 796 796 796 796 796 796 795 795 795 795 795 795 795 794 794 794 794 794 794 794 794 795 795 795 795 795 795 796 796 796 797 797 797 797 798 798 798 799
790 791 791 792 792 792 792 793 793 793 793 793 793 793 793 794 794 794 794 794 794 795 795 795 795 795 795 795 796 796 796 796 796 796 796 795 795 795 795 795 795 795 795 795 794 794 794 794 794 794 794 794 794 794 795 795 795 795 796 796 797 797 797 798 798 798 799 799 799
789 790 790 791 791 792 792 792 792 792 792 792 792 792 793 793 793 793 794 794 794 794 794 794 795 795 795 795 795 795 795 795 795 795 795 795 795 795 794 794 794 795 795 795 794 794 794 794 794 794 794 794 794 794 795 795 795 795 796 796 797 797 798 798 799 799 799 799 799
788 789 790 790 790 791 791 791 791 792 792 792 792 792 792 793 793 793 793 793 794 794 794 794 794 794 795 795 795 795 795 795 795 795 795 795 794 794 794 794 794 794 794 794 794 794 794 794 794 794 794 794 794 794 794 795 795 796 796 797 797 798 798 799 799 799 799 800 800
788 788 789 789 790 790 790 790 791 791 791 791 791 792 792 792 792 792 793 793 793 793 794 794 794 794 795 795 795 795 795 795 795 795 795 795 794 794 794 794 794 794 794 794 794 794 794 794 794 794 794 794 794 794 794 795 795 796 796 797 797 798 798 799 799 799 800 800 800
787 788 788 789 789 789 789 790 790 790 790 791 791 791 792 792 792 792 792 793 793 793 793 794 794 794 794 795 795 795 795 795 795 795 794 794 794 794 794 794 794 794 794 794 794 794 794 794 794 794 794 794 794 794 794 795 795 796 796 797 797 798 798 799 799 800 800 800 800
786 787 787 788 788 789 789 789 789 789 790 790 790 791 791 792 792 792 792 792 793 793 793 793 794 794 794 794 794 794 794 794 794 794 794 794 794 794 794 794 794 794 794 794 794 794 794 794 794 794 794 794 794 794 794 795 795 796 796 796 797 797 798 798 799 799 800 800 800
786 786 787 787 788 788 788 788 789 789 789 789 790 790 791 791 792 792 792 792 792 793 793 793 793 793 794 794 794 794 794 794 794 794 794 794 794 794 794 794 794 794 794 794 794 794 794 794 794 794 794 794 794 794 794 795 795 796 796 796 797 797 797 798 798 799 799 800 800
785 786 786 787 787 787 788 788 788 788 788 789 789 790 790 791 791 792 792 792 792 792 793 793 793 793 793 794 794 794 794 794 794 794 794 794 794 794 794 794 794 794 794 794 794 794 794 794 794 794 794 794 795 795 795 795 795 796 796 796 797 797 797 798 798 798 799 799 800
785 785 786 786 787 787 787 787 788 788 788 788 789 789 790 790 791 791 792 792 792 792 792 793 793 793 793 793 793 793 793 794 794 794 794 794 794 794 794 793 793 794 794 794 794 794 794 794 794 794 795 795 795 795 795 795 795 796 796 796 797 797 797 798 798 799 799 799 800
784 785 785 785 786 786 787 787 787 787 788 788 788 789 789 790 790 791 791 792 792 792 792 792 792 793 793 793 793 793 793 794 794 794 794 794 794 794 794 793 793 794 794 794 794 794 794 794 794 794 795 795 796 795 795 796 796 796 796 796 797 797 797 798 798 799 799 799 800
784 784 784 785 785 786 786 787 787 787 787 788 788 789 789 789 790 790 791 791 791 792 792 792 792 792 792 793 793 793 793 793 793 794 794 794 794 794 794 793 793 793 794 794 794 794 794 794 794 794 795 795 796 796 796 796 796 796 796 796 797 797 797 798 798 799 799 800 800
Wind_Speed
14 15 15 16 16 15 15 16 15 15 14 13 12 12 11 11 11 11 11 11 11 11 11 10 10 10 10 11 11 11 12 12 13 14 14 15 16 16 17 18 19 20 20 21 22 22 22 22 22 21 21 21 21 21 20 20 20 20 19 19 19 19 20 20 21 22 23 23 23
12 13 13 14 14 14 14 15 15 15 14 13 13 12 12 12 11 11 11 11 11 11 11 11 11 12 12 12 13 13 13 14 14 14 15 15 15 16 16 17 17 18 19 19 20 21 22 22 23 23 23 23 23 23 23 23 23 22 22 22 22 21 21 21 21 22 22 22 23
10 11 11 12 12 13 13 13 13 13 13 12 12 12 12 12 11 11 11 10 10 10 11 11 12 12 12 13 14 14 14 15 15 15 16 16 16 16 16 16 16 16 16 17 17 18 19 20 20 21 22 23 23 24 24 25 24 24 24 24 24 24 23 23 22 22 22 22 22
9 8 8 9 9 9 8 8 8 7 8 8 9 9 10 10 10 10 10 10 10 10 10 10 11 12 12 13 13 14 14 15 15 16 16 16 16 16 16 16 16 16 16 16 16 17 17 18 19 19 20 21 22 23 23 24 23 23 23 24 24 24 24 24 23 23 22 21 22
9 9 9 9 8 8 7 7 6 5 5 5 6 7 8 8 8 8 9 9 9 9 9 10 10 11 12 13 13 14 14 15 15 16 16 16 16 16 16 16 16 16 17 17 17 17 18 18 19 19 20 21 21 22 22 22 22 22 23 23 23 23 23 23 23 23 22 21 21
10 10 10 10 10 10 10 9 9 9 8 7 6 6 6 6 6 6 6 7 7 8 8 10 11 12 12 13 13 14 14 15 15 15 15 15 15 15 14 14 15 15 16 17 17 18 18 19 19 20 20 20 20 20 20 20 20 21 22 22 22 22 22 22 22 22 22 21 20
9 9 9 9 10 10 10 10 10 10 9 8 8 7 6 6 5 5 5 6 6 8 9 10 11 12 13 13 14 14 14 14 14 13 13 12 11 11 11 12 13 14 15 15 16 16 17 17 17 18 18 18 18 18 18 17 18 19 20 21 22 21 21 21 21 21 21 21 20
6 6 7 7 7 8 8 9 9 9 9 9 9 9 8 8 8 8 8 8 9 10 11 12 12 13 14 14 14 14 14 13 12 11 10 10 10 11 12 13 13 13 13 14 13 13 13 14 14 15 16 16 16 16 16 15 16 17 18 20 20 21 21 21 21 21 21 21 20
4 4 3 3 4 4 5 6 7 7 8 9 9 9 10 10 10 11 11 11 12 12 13 13 13 13 13 13 13 12 11 11 11 11 12 12 13 13 14 14 14 15 14 14 14 13 13 12 13 14 15 15 16 16 16 15 15 16 17 18 19 20 20 21 21 21 21 20 20
5 4 3 2 1 1 2 4 5 5 6 7 7 8 9 9 10 11 11 12 13 13 13 12 12 12 11 10 9 9 8 9 10 11 13 14 15 15 16 16 17 17 17 17 17 16 15 15 15 15 15 15 15 15 15 15 15 16 17 18 19 19 20 21 21 21 21 20 20
6 5 4 3 1 1 3 3 4 5 5 5 5 6 6 7 7 8 9 10 10 10 9 9 9 9 9 9 9 9 9 10 11 12 13 14 15 15 16 17 18 18 19 19 19 18 17 17 16 16 16 15 15 15 15 15 16 17 17 18 19 20 21 21 21 21 21 20 19
5 4 3 2 2 3 3 3 3 3 3 3 3 3 3 4 4 5 6 7 6 6 6 7 8 9 10 10 11 11 11 12 12 12 13 13 14 14 15 16 17 18 19 19 18 18 17 17 17 16 17 16 16 16 16 17 17 18 18 19 19 20 21 21 22 21 21 21 20
3 2 2 2 3 3 3 2 1 1 1 2 2 2 3 4 5 6 6 6 5 5 6 8 9 10 11 11 12 12 13 13 13 13 14 14 14 14 14 15 16 17 17 16 15 14 14 14 15 16 16 16 17 17 17 18 18 18 18 19 19 20 20 21 21 21 21 21 21
1 1 1 2 2 2 2 1 2 2 3 3 3 4 5 5 6 7 7 6 6 6 6 7 8 9 11 12 13 13 14 15 15 15 15 15 15 15 14 14 15 15 15 14 13 12 12 13 13 14 14 15 15 16 16 16 17 17 17 18 18 19 19 20 21 21 21 21 21
1 1 2 2 2 2 1 2 3 3 4 4 4 5 5 6 6 6 6 6 6 6 7 7 7 8 10 11 12 13 14 14 15 15 14 14 14 13 13 13 13 13 12 12 12 12 12 12 12 12 12 13 13 14 14 14 14 15 15 16 17 18 19 19 20 20 21 21 22
2 2 2 3 3 2 2 3 3 4 4 4 4 5 5 5 5 5 5 6 6 7 7 8 8 9 10 11 11 11 11 11 11 10 10 10 10 10 11 11 11 11 11 11 11 11 11 11 11 11 11 12 13 13 13 13 13 14 14 15 16 17 18 18 19 20 20 21 22
2 3 3 3 3 3 3 3 4 4 4 4 4 4 5 5 5 6 7 8 8 8 8 9 9 10 10 11 10 9 8 8 8 8 8 8 9 9 10 10 10 10 9 9 9 10 10 10 10 10 10 11 12 13 13 14 13 14 14 15 15 16 17 17 18 19 19 20 20
3 3 3 3 3 3 3 4 5 5 5 4 4 4 5 6 7 8 8 8 8 7 7 8 9 9 9 9 8 8 7 7 7 7 8 8 8 8 8 8 8 8 8 8 9 9 9 9 10 10 10 11 11 12 13 13 13 14 14 15 15 16 16 16 17 17 17 17 18
3 3 3 3 3 4 4 5 5 5 5 4 4 5 6 7 8 8 8 8 7 7 7 7 8 8 8 8 7 7 6 6 6 7 7 7 7 7 8 8 8 8 8 8 9 9 9 9 9 9 9 10 10 11 12 12 12 13 13 13 14 14 14 14 14 14 14 15 15
3 3 3 3 4 5 5 5 6 5 5 5 5 6 7 7 7 7 7 7 6 6 7 7 7 7 6 6 6 6 5 5 5 6 6 7 7 7 7 7 7 8 8 8 8 8 8 8 8 8 8 9 9 10 10 11 11 11 11 12 12 12 12 12 12 12 13 13 14
3 3 4 4 5 6 6 6 5 5 5 5 5 4 4 4 4 5 5 6 6 6 6 6 6 5 5 4 4 4 4 5 5 5 6 6 6 6 6 6 7 7 8 7 7 7 7 7 7 7 7 7 8 8 9 9 10 10 10 10 10 11 11 11 12 12 13 13 14
4 4 5 6 6 7 7 6 5 5 5 4 3 2 2 3 3 4 4 5 5 5 5 5 4 4 4 3 4 4 4 4 4 5 5 5 5 5 5 6 6 6 6 6 6 6 6 6 6 6 6 7 7 7 8 8 9 9 10 10 10 10 11 12 12 13 13 14 14
5 6 6 7 7 7 6 5 4 4 4 3 2 2 2 2 3 3 3 3 4 4 5 4 4 3 3 3 3 4 4 4 4 4 4 4 4 4 4 5 5 5 5 5 5 5 5 5 5 5 6 6 7 7 7 8 8 9 9 10 10 10 11 11 12 12 13 13 14
6 7 8 7 7 6 5 4 4 4 4 4 3 3 3 3 3 3 3 3 4 4 4 4 3 2 2 2 2 3 3 4 4 4 4 4 3 3 3 4 4 4 4 5 4 4 4 4 4 4 5 5 6 7 7 7 8 8 8 9 9 10 10 11 11 12 13 13 13
8 9 9 8 6 5 4 3 4 5 5 4 4 4 5 5 4 3 3 3 4 4 4 3 2 2 2 2 2 2 2 3 3 4 4 3 3 3 2 3 3 3 3 3 3 2 2 3 3 3 4 5 5 6 6 6 7 7 7 8 9 10 11 11 12 12 12 13 13
8 9 8 7 6 4 4 4 6 6 5 5 5 6 6 6 5 3 2 3 4 4 3 3 2 2 2 2 2 2 2 2 3 3 3 3 3 3 3 2 2 2 1 1 1 1 1 1 2 2 3 4 5 5 6 6 6 6 7 8 9 10 12 12 12 12 12 11 11
7 7 7 6 4 4 5 6 6 6 5 5 5 5 6 6 5 4 3 3 3 3 3 4 3 3 3 3 2 2 2 2 2 2 2 2 3 3 3 2 2 1 0 1 1 1 1 1 1 2 2 3 4 5 6 7 7 7 8 9 9 10 11 12 12 11 11 11 11
6 5 5 4 4 4 6 6 6 6 5 5 5 5 5 5 5 4 3 3 3 3 4 4 5 4 4 4 3 3 3 2 2 2 2 2 3 3 3 2 1 0 1 2 2 2 2 2 2 2 3 4 5 6 7 8 9 9 9 10 10 10 10 11 11 12 12 13 13
6 5 5 4 5 6 6 6 6 6 5 5 5 6 5 5 4 4 4 4 4 4 4 5 5 5 4 4 3 3 4 4 3 3 3 3 3 3 3 2 1 1 2 3 3 3 3 3 3 3 4 5 6 7 8 9 10 11 11 11 11 10 10 11 12 14 15 16 16
6 5 5 5 6 7 7 7 7 6 6 6 6 5 5 4 3 3 4 5 5 5 5 5 4 4 4 4 4 4 4 4 3 3 3 3 2 2 2 1 1 2 3 3 3 3 3 4 4 4 5 6 7 8 9 10 11 12 12 12 12 11 11 12 13 15 16 16 16
6 6 6 6 7 7 8 8 7 7 6 5 5 4 3 2 3 4 5 5 5 5 5 5 4 4 4 4 5 5 4 4 3 2 2 2 1 1 1 1 0 2 2 3 3 3 3 4 4 5 6 7 8 9 10 11 12 12 13 13 13 12 11 12 13 14 14 14 14
7 7 7 7 7 7 8 8 7 6 5 5 4 2 2 3 4 5 5 5 5 5 5 4 3 4 4 4 4 4 4 3 3 3 2 2 2 2 1 1 1 2 3 3 4 4 4 4 4 6 7 8 9 10 11 11 12 13 13 13 13 12 12 11 12 12 12 11 11
8 8 7 7 7 7 7 7 6 5 4 4 3 3 3 4 5 5 5 5 5 4 4 3 3 3 3 3 3 3 3 3 3 3 3 2 2 2 2 2 2 3 4 4 4 4 4 4 5 6 7 8 9 10 11 11 12 13 13 13 12 12 11 11 10 10 10 9 9
8 8 7 7 7 7 7 6 5 5 4 3 3 4 5 5 5 5 5 5 4 3 3 3 3 4 3 3 3 3 3 3 3 3 2 2 2 3 3 3 3 3 4 4 4 4 4 4 5 6 7 8 9 10 11 11 12 13 13 13 12 11 10 10 9 9 8 8 8
9 8 8 8 8 7 7 6 5 5 4 4 4 5 5 5 5 5 4 4 3 3 4 4 4 4 4 4 4 4 4 3 3 3 2 2 2 2 3 3 3 3 3 3 4 4 4 4 5 6 7 8 9 10 11 12 13 14 14 14 13 12 11 11 10 10 9 8 9
9 9 9 9 8 8 7 7 6 5 5 5 6 6 6 6 6 5 5 4 4 4 5 5 5 5 5 5 4 4 3 3 3 2 2 2 2 2 3 3 3 3 3 3 4 4 3 4 4 6 7 8 9 9 10 12 13 14 14 14 13 13 13 12 12 11 11 10 10
10 10 9 9 9 9 8 7 7 6 7 7 7 7 7 7 6 6 5 5 5 6 6 6 6 6 5 5 4 4 3 3 2 2 2 2 2 2 3 3 4 4 3 4 4 3 3 3 4 6 8 8 8 9 10 12 13 14 14 14 14 13 13 13 13 13 13 12 12
10 10 10 10 9 9 9 8 8 8 8 8 8 8 8 7 7 6 6 6 6 7 7 6 6 6 6 5 5 4 4 3 3 3 2 2 2 2 3 4 5 5 4 4 3 3 3 3 5 7 8 8 8 9 10 11 12 12 13 13 13 13 13 13 13 13 14 14 13
10 10 10 10 9 9 9 9 8 8 9 9 9 9 8 8 7 7 7 7 7 7 7 7 6 6 6 6 6 5 5 4 4 3 3 3 2 3 4 5 6 6 5 4 3 3 2 4 7 8 7 6 7 8 9 10 11 11 12 12 12 12 12 13 13 13 13 14 13
11 10 10 10 9 9 9 9 8 9 9 9 9 9 8 8 8 8 7 7 7 8 8 7 7 7 6 6 6 6 6 6 5 5 4 4 3 3 4 5 6 5 4 4 3 3 2 6 8 7 6 5 6 8 8 9 10 10 11 11 11 11 11 11 12 12 13 13 13
10 10 10 10 10 9 9 9 9 9 9 9 9 9 9 9 8 8 8 7 8 8 8 8 7 7 7 7 7 7 7 7 6 5 5 4 3 3 4 4 4 4 4 4 3 2 3 7 8 8 6 6 6 7 8 8 9 10 10 10 10 10 10 10 11 11 12 13 13
Wind_Direction
197 198 198 198 200 203 206 207 208 208 209 211 213 216 218 219 219 221 224 225 226 226 226 225 222 221 222 225 228 230 233 235 237 239 242 245 247 249 251 252 253 254 254 255 255 255 255 254 254 254 254 253 253 253 253 251 251 252 254 256 256 254 252 250 249 249 248 248 248
200 202 204 206 209 213 215 218 220 221 223 223 224 225 227 228 227 227 228 228 228 228 227 226 227 226 227 230 234 237 240 242 245 247 250 253 256 258 260 261 262 262 262 262 261 261 260 259 258 258 258 258 258 258 258 256 256 256 256 256 256 256 255 253 252 251 250 248 247
202 205 209 213 217 220 223 226 228 229 230 229 228 228 228 229 228 227 226 226 227 230 231 231 233 234 235 238 242 245 248 251 254 256 259 261 263 264 264 265 265 265 265 264 264 263 262 261 261 260 260 260 260 259 259 259 258 258 258 257 256 256 255 255 254 253 252 249 246
192 195 199 203 206 210 214 219 221 223 224 224 223 223 225 227 228 228 228 228 231 235 238 240 242 243 245 247 250 253 256 259 262 265 266 268 269 269 268 267 266 265 263 262 261 261 261 262 261 261 261 261 260 260 259 259 258 257 257 256 256 255 255 254 254 253 252 250 247
176 177 177 176 177 178 180 178 174 175 185 200 210 217 223 229 234 237 239 240 242 246 250 253 253 253 255 257 259 262 265 268 270 273 274 276 276 276 275 273 270 267 265 262 261 261 261 262 263 263 263 263 263 262 261 260 258 257 256 255 255 255 255 254 253 252 250 249 247
178 179 179 179 179 179 179 177 174 174 177 186 198 210 220 231 242 251 256 258 257 256 255 257 259 261 263 265 268 270 273 275 277 279 281 283 283 283 280 277 273 269 267 266 265 265 266 267 268 268 268 268 268 267 266 264 261 258 256 255 255 255 255 254 252 250 248 247 245
187 188 190 191 193 195 196 197 196 196 199 204 211 216 222 230 238 247 254 257 257 255 256 258 262 265 269 271 274 276 278 279 281 283 284 284 281 276 272 268 267 267 268 269 270 272 272 273 273 273 273 272 271 271 269 267 263 260 258 256 255 255 254 253 251 249 247 245 244
188 195 201 207 210 213 216 218 219 221 224 229 233 236 238 240 241 243 247 250 252 254 257 261 264 268 272 275 277 279 280 279 277 273 269 263 259 256 255 256 258 260 263 266 268 270 271 271 271 270 270 270 269 268 268 266 263 260 258 257 256 255 254 252 249 247 245 244 244
163 178 196 211 222 228 233 237 239 241 244 247 250 252 254 254 254 254 254 254 255 257 260 264 268 271 275 277 279 280 279 274 267 259 253 249 248 248 250 253 255 257 258 260 259 258 258 258 259 260 262 263 264 264 264 263 262 259 257 255 255 254 252 250 247 245 244 243 243
144 148 152 159 194 244 265 272 275 274 273 271 271 269 269 268 267 265 263 261 260 261 264 268 271 273 272 271 269 267 264 261 258 255 253 251 251 252 254 256 258 258 259 259 258 257 256 255 255 256 257 258 261 262 263 261 259 257 255 252 251 251 250 248 246 245 243 243 244
143 146 149 155 182 253 285 297 303 302 300 296 291 286 284 282 279 274 269 267 267 268 269 269 266 262 257 252 248 246 247 248 250 252 254 255 256 257 259 261 262 262 262 262 262 261 260 258 258 257 257 256 257 257 258 257 255 253 251 250 249 249 249 248 248 247 246 246 248
150 158 171 193 232 263 282 295 307 311 308 303 293 285 281 277 268 261 261 263 265 266 263 258 253 251 249 248 247 247 248 249 251 253 255 258 259 261 262 265 266 266 267 268 268 267 264 261 260 259 258 256 254 253 252 252 251 250 249 249 248 248 249 250 250 251 251 253 254
158 176 203 235 259 274 283 287 279 259 254 256 243 228 222 223 230 236 242 248 250 248 249 253 256 256 256 254 253 253 253 253 254 255 257 259 261 264 266 270 273 275 277 280 281 280 277 271 268 265 264 263 260 257 254 253 252 252 252 252 252 252 253 254 255 255 256 256 256
174 195 214 234 259 272 273 249 202 191 194 201 203 203 206 217 230 238 243 246 246 244 248 256 263 265 264 261 259 259 259 260 260 261 263 266 268 271 273 277 280 284 287 291 292 291 288 284 281 279 277 275 273 269 266 262 260 258 257 257 257 256 256 256 257 257 255 253 249
170 194 209 218 228 234 220 192 190 191 191 194 201 206 213 223 237 246 250 249 250 252 255 261 268 271 270 269 270 271 271 271 271 271 272 274 276 277 278 280 283 286 288 290 289 287 285 283 283 282 281 280 278 276 274 271 268 265 261 258 256 254 253 253 252 251 248 243 238
174 191 205 210 208 203 191 184 188 191 192 194 203 211 216 225 239 252 260 263 268 273 274 272 272 274 278 283 286 287 286 284 283 281 279 278 279 279 279 280 281 283 285 286 286 285 284 282 281 280 278 276 274 272 271 270 268 264 259 254 250 248 246 246 244 241 238 234 229
188 196 203 205 200 190 181 179 182 183 184 190 204 213 221 233 253 269 278 283 288 289 285 278 276 278 283 287 290 290 287 283 281 279 278 278 279 280 282 282 283 284 286 289 290 289 289 288 287 284 280 275 271 267 266 264 262 258 254 249 244 241 239 238 235 232 229 226 222
201 203 204 202 196 186 180 182 181 178 178 186 205 224 238 254 269 277 282 285 285 280 272 269 272 275 276 276 277 276 273 271 272 274 277 280 282 284 286 287 288 290 291 291 290 288 286 286 285 283 279 275 270 266 263 260 256 252 248 244 239 235 232 230 228 226 223 221 218
207 208 206 200 191 185 186 188 186 185 189 201 224 248 261 267 268 269 271 274 272 266 261 262 267 269 269 268 271 272 271 267 270 275 280 284 285 285 286 288 290 291 290 287 284 280 279 278 277 276 275 272 269 265 261 256 251 246 241 237 233 229 225 222 220 219 217 215 212
206 208 206 199 187 183 185 189 193 199 210 226 246 261 268 267 263 260 263 268 272 269 265 265 268 269 268 267 271 273 273 271 273 277 280 282 282 281 282 284 286 286 283 280 278 275 274 273 272 271 269 266 262 258 253 248 242 237 232 228 224 219 216 212 209 207 204 202 200
205 206 203 195 187 186 188 194 203 215 228 239 248 257 265 265 262 263 267 273 276 273 266 262 263 265 266 267 269 274 277 276 274 274 275 275 275 276 279 281 283 282 281 279 276 274 271 268 265 262 259 255 249 245 240 235 229 224 220 215 210 206 202 199 195 192 189 187 187
204 202 198 190 187 190 196 203 215 227 236 237 240 253 266 268 269 274 280 283 279 268 256 249 250 255 265 274 281 288 291 290 284 278 276 276 277 278 279 282 284 285 284 281 276 270 264 260 255 250 246 240 234 229 224 219 215 211 206 201 197 192 189 187 185 183 181 180 181
199 194 191 191 194 201 210 217 222 226 231 236 245 264 286 291 297 300 300 295 280 261 242 231 231 244 265 284 294 301 303 304 298 292 287 282 282 281 280 283 288 291 290 288 280 268 257 250 246 244 238 230 221 215 210 208 205 201 197 192 188 183 180 179 179 179 179 179 180
195 192 192 197 205 217 226 229 215 209 219 236 253 272 290 300 304 303 298 287 275 261 245 230 227 242 265 282 293 302 304 304 301 299 296 291 285 277 274 276 284 291 296 298 288 269 253 245 240 238 233 225 216 210 206 203 200 198 193 187 182 177 174 173 174 176 178 179 180
193 196 199 204 214 227 233 221 192 191 208 233 255 271 280 284 289 287 276 260 257 255 252 247 250 264 276 282 287 292 291 294 295 296 295 294 289 280 272 270 273 282 291 295 287 267 247 241 242 241 234 224 215 209 204 199 195 191 188 183 177 173 170 169 171 174 177 178 178
194 198 204 210 219 222 210 189 183 189 206 232 252 265 274 284 294 294 268 244 241 242 245 249 265 284 293 293 286 272 264 271 285 290 292 290 287 288 289 288 282 275 273 276 265 240 234 238 241 242 235 224 212 201 192 185 181 178 174 171 170 168 167 166 168 171 173 174 174
191 198 208 219 222 202 184 184 190 200 213 229 247 263 279 296 307 300 268 241 236 236 240 248 267 288 302 305 301 290 272 264 267 274 280 283 286 291 296 301 301 290 160 145 148 163 191 217 226 221 215 208 198 187 176 167 161 158 156 156 158 161 162 162 162 163 163 162 161
191 202 216 226 211 187 182 189 202 214 225 236 252 269 286 295 292 277 251 228 223 230 243 254 270 286 300 306 307 302 293 282 272 267 272 278 284 289 296 301 311 74 126 135 143 152 166 182 196 198 193 186 177 170 162 154 148 145 143 143 145 148 150 151 151 148 145 141 139
197 208 216 215 194 183 186 195 207 217 229 241 258 272 281 280 269 251 231 214 208 215 232 252 269 283 291 289 286 282 278 273 274 276 279 280 282 289 298 308 344 97 118 131 144 154 165 174 183 185 183 177 169 163 158 152 147 143 139 137 136 136 137 138 138 136 133 129 126
198 205 208 202 193 190 194 201 209 218 229 244 259 270 273 266 247 227 215 208 209 218 233 250 264 270 266 256 253 249 247 249 255 263 270 273 278 288 298 315 25 102 118 132 148 158 165 172 178 182 182 178 173 168 163 158 154 148 142 138 135 133 133 135 134 133 130 128 127
199 202 202 199 197 199 204 209 215 223 235 249 260 264 259 232 208 202 204 210 220 234 247 257 260 253 246 244 239 233 228 224 214 208 214 231 249 271 283 291 167 132 139 151 158 162 168 174 180 182 181 180 179 175 170 166 161 154 148 142 137 135 136 137 137 136 134 134 136
199 199 198 199 201 206 212 218 223 231 240 249 249 232 194 185 197 206 214 223 235 249 256 256 245 235 234 237 235 231 224 210 193 184 185 191 193 205 220 218 182 158 154 161 166 169 172 178 181 180 179 179 179 177 174 170 165 160 154 147 141 138 138 141 141 141 140 142 147
195 195 196 198 203 211 219 225 232 240 247 245 220 181 170 189 208 220 228 235 245 252 252 241 222 217 219 221 219 212 204 194 186 184 185 187 187 187 186 184 179 167 161 165 170 173 176 180 181 179 177 177 176 175 173 170 167 161 155 148 141 138 138 141 142 143 144 149 155
190 191 194 199 207 216 225 234 243 250 245 226 192 176 179 199 216 227 234 239 242 240 232 217 207 204 202 197 189 181 179 180 181 183 184 188 198 201 198 190 181 172 168 170 174 176 178 183 184 182 180 177 175 173 171 167 163 158 152 146 141 139 140 142 143 145 148 153 157
187 191 197 204 212 222 231 240 247 244 225 200 184 182 190 205 216 225 230 232 225 212 202 199 196 192 187 183 178 173 172 173 176 179 181 194 213 219 214 202 188 180 181 187 180 178 182 189 191 188 182 177 173 171 168 164 159 154 150 147 144 144 144 145 146 148 151 154 155
190 195 201 207 216 225 234 241 240 225 203 187 186 191 200 209 216 221 224 220 205 195 192 193 192 189 185 182 178 176 176 181 189 192 197 212 229 232 222 205 186 190 203 203 187 184 192 202 196 185 174 167 164 164 164 162 158 155 153 151 148 147 146 146 147 147 149 151 152
197 200 204 210 217 226 235 238 231 212 194 187 191 198 205 211 214 216 218 211 198 192 192 192 190 188 187 185 182 181 185 194 201 202 204 214 237 236 220 198 181 183 193 198 191 196 209 211 184 163 152 147 148 152 156 157 157 157 157 155 151 149 148 149 148 146 145 146 150
207 207 209 213 219 227 234 235 225 208 194 191 195 202 208 212 213 212 211 207 198 195 194 193 190 189 189 189 188 189 193 197 198 195 191 192 206 213 202 189 178 178 183 191 198 216 225 198 155 141 133 132 137 144 149 152 155 157 158 157 155 153 153 153 150 146 144 144 147
216 215 214 216 223 230 234 232 222 208 198 195 198 203 208 211 212 211 210 207 202 200 198 195 192 192 193 195 196 198 202 208 210 206 198 189 186 189 187 182 178 180 186 198 219 242 226 167 144 136 132 138 143 146 148 149 151 155 157 158 158 158 158 158 154 150 146 145 147
220 220 219 221 225 230 232 230 220 209 201 199 200 203 205 208 210 211 211 208 205 203 201 198 197 197 199 200 202 205 210 216 219 217 211 202 193 185 182 180 178 184 201 224 248 255 202 160 148 142 141 150 155 154 153 153 153 153 155 157 159 162 164 165 162 157 153 151 150
221 221 221 222 226 228 229 226 218 209 204 201 200 201 204 207 211 212 210 207 205 204 203 202 202 203 205 207 210 213 213 213 213 213 214 215 209 197 187 184 183 196 224 252 265 247 184 163 155 148 145 150 158 161 161 160 158 156 155 157 161 164 167 170 170 167 164 160 158